Lapse_Rate
7.2 6.7 6.2 5.6 5.5 5.5 5.5 5.6 5.7 6.2 6.3 5.8 5.7 5.7 6.1 6.4 6.5 6.3 6.5 6.8 7.3 7.4 7.2 6.8 8.0 7.9 8.1 8.3 8.1 8.0 7.3 6.9 6.4 6.5 6.3 5.9 5.9 5.9 5.7 5.6 5.7 6.0 5.7 6.0
7.1 6.5 6.8 6.3 6.0 5.9 6.1 6.1 6.1 6.4 6.4 5.8 5.9 5.7 6.0 6.0 6.1 6.2 6.4 6.6 6.9 7.4 7.2 6.8 7.5 8.0 8.0 8.4 8.3 7.9 7.6 7.0 6.7 6.5 6.5 6.1 6.0 6.0 5.9 5.9 6.0 5.8 5.7 5.9
6.8 6.3 6.7 6.1 6.3 6.0 6.2 6.1 6.4 6.2 5.9 5.7 5.6 5.7 6.0 6.0 6.0 6.0 6.1 7.4 7.4 7.7 7.7 7.0 6.5 7.8 8.2 8.1 8.1 8.1 7.5 7.4 6.9 6.6 6.4 6.1 5.9 5.6 5.7 5.9 6.2 6.2 6.2 6.1
6.5 6.3 6.3 6.5 6.6 5.6 5.6 6.0 5.7 5.6 5.9 6.7 7.4 7.3 6.9 7.1 6.8 6.7 6.4 7.1 7.8 7.8 8.2 7.4 6.7 7.6 8.0 8.1 8.2 8.1 7.9 7.2 6.7 6.8 6.6 6.6 6.5 6.2 6.2 6.3 6.4 6.1 6.1 6.1
6.1 6.6 6.6 6.6 6.0 5.7 5.8 5.5 5.5 5.8 5.9 6.4 6.8 7.4 6.6 7.2 6.8 6.7 6.8 6.7 7.4 7.7 7.8 7.5 6.9 7.1 8.2 8.5 8.0 8.0 7.6 7.4 6.7 6.7 6.9 6.7 6.6 6.3 6.2 6.3 6.2 6.2 6.1 6.1
5.9 6.6 6.3 6.1 5.9 6.0 5.9 6.1 6.7 6.9 6.8 7.4 7.5 8.1 8.3 8.0 7.3 7.1 7.0 7.0 7.1 7.2 7.5 7.6 7.2 6.6 8.2 8.6 8.3 8.0 7.9 7.5 7.0 6.7 6.7 6.8 6.6 6.5 6.3 6.2 6.2 6.3 6.2 6.2
6.0 6.7 6.2 6.2 6.1 6.4 6.0 6.3 8.5 9.5 8.6 8.3 9.0 9.3 8.1 7.9 8.0 7.9 7.9 7.3 6.8 6.8 7.6 7.6 7.6 7.0 6.9 8.4 8.5 8.2 7.9 7.7 7.2 6.7 7.0 7.0 6.8 6.5 6.7 6.6 6.4 6.4 6.3 6.5
5.5 7.0 6.5 6.3 5.7 5.1 6.1 6.3 6.6 6.8 9.2 8.6 8.0 8.9 8.0 7.7 7.8 6.9 6.6 6.5 6.3 6.2 6.3 6.9 7.3 7.2 7.0 8.2 8.4 8.4 8.1 7.8 7.5 7.1 7.1 7.2 7.2 6.7 6.7 6.7 6.5 6.3 6.5 6.8
5.3 5.8 6.2 6.3 6.2 5.8 5.9 6.4 6.0 5.9 6.5 7.0 7.6 8.3 7.6 6.5 7.2 7.5 6.4 6.2 5.7 5.2 5.7 7.3 7.2 6.9 7.0 8.3 8.1 8.5 8.4 7.9 7.8 7.6 7.3 7.5 7.9 7.2 7.0 6.9 6.6 6.5 6.4 6.6
5.2 5.0 6.3 6.5 6.7 6.3 6.2 6.0 6.5 6.6 7.3 7.5 8.7 5.9 5.5 5.1 5.8 6.5 6.3 5.9 6.2 6.7 6.8 7.2 7.3 7.5 7.7 8.2 8.3 8.4 8.4 8.0 7.9 7.8 7.6 7.5 7.7 7.9 7.5 7.3 6.9 6.7 6.5 6.5
5.0 5.5 6.4 6.8 6.9 6.4 6.9 6.5 6.1 6.1 6.3 7.3 7.5 6.0 4.8 4.6 5.0 5.0 5.9 6.0 6.0 6.4 6.8 7.2 7.3 7.6 7.7 8.1 8.3 8.1 8.4 8.3 8.0 8.0 7.8 7.6 7.6 7.6 7.7 7.4 7.2 6.9 6.9 6.8
5.1 5.5 6.3 7.0 7.2 7.0 7.0 6.4 6.2 6.4 7.0 6.4 6.5 6.1 5.1 4.9 4.7 4.8 5.2 5.5 6.1 6.2 6.3 7.2 7.5 7.6 7.9 8.1 8.5 8.3 8.0 8.5 8.4 8.3 8.1 7.5 7.3 7.2 7.7 7.5 7.3 7.1 6.9 6.9
5.7 6.6 7.0 8.2 8.4 7.9 7.2 7.0 6.1 6.2 6.6 7.1 7.0 6.2 4.9 4.6 4.6 5.2 4.6 3.7 5.9 6.2 6.4 6.4 7.6 7.8 8.0 8.0 8.3 8.7 8.7 8.8 8.7 8.5 8.3 8.0 7.6 7.5 7.3 7.6 7.4 7.1 7.1 7.0
6.1 6.8 7.3 7.9 7.8 7.7 7.5 7.1 6.2 5.8 6.3 6.6 5.6 5.2 4.4 4.4 4.3 4.6 4.3 3.7 5.3 6.1 6.7 6.8 6.8 7.8 8.1 8.1 8.4 8.7 8.8 8.8 8.6 8.7 8.5 8.3 7.9 7.8 7.6 7.1 7.4 7.1 7.0 6.9
6.3 7.2 7.3 8.0 8.3 8.5 7.8 7.5 6.5 5.7 5.2 5.7 5.4 4.8 4.1 4.0 4.1 4.0 3.6 4.1 3.9 5.6 6.7 6.8 7.0 6.8 7.8 8.1 8.2 8.4 8.8 8.5 8.8 8.7 8.7 8.5 8.2 7.8 7.6 7.2 6.8 7.0 7.3 6.7
6.5 7.0 7.4 8.4 8.8 8.2 7.5 7.1 7.1 6.3 5.9 5.3 5.2 4.7 4.4 4.3 3.9 4.4 3.9 3.8 3.6 4.1 5.5 6.1 6.7 6.9 6.9 6.7 6.9 6.9 7.8 8.0 8.1 8.3 8.5 8.2 8.1 7.9 7.4 7.3 6.9 6.0 6.3 6.5
6.5 6.8 7.6 8.6 8.6 8.7 7.9 7.1 6.9 6.6 5.9 5.6 5.0 4.6 4.7 5.0 3.6 4.0 3.6 3.0 2.6 3.8 3.6 5.0 5.5 6.0 6.6 6.9 7.1 6.8 7.0 7.0 7.3 7.4 7.8 8.0 8.1 8.1 7.8 7.5 7.2 6.6 5.8 5.9
6.4 6.9 7.7 8.6 8.5 7.6 6.9 6.9 7.2 6.5 6.1 5.6 4.9 4.5 4.3 4.3 4.0 3.7 4.6 4.3 3.4 3.6 3.8 3.9 4.6 5.0 5.8 6.0 6.7 6.8 7.0 6.9 6.8 7.0 7.2 7.9 8.1 8.2 8.1 7.9 7.4 6.9 6.6 6.2
6.9 7.6 8.3 8.2 8.4 7.6 7.4 7.2 7.3 7.1 6.3 5.9 5.5 5.0 4.7 4.4 4.4 4.2 4.2 4.4 3.9 3.6 2.8 3.8 3.4 4.1 4.9 5.5 6.1 6.3 6.6 6.9 6.8 7.0 7.0 6.7 7.3 7.6 7.9 7.8 7.3 6.9 6.7 6.2
7.3 8.1 8.6 8.4 8.4 7.9 7.1 7.2 7.1 7.2 7.2 5.9 5.6 5.2 5.1 5.1 4.5 3.5 2.8 3.3 4.0 2.9 3.2 2.7 3.1 3.6 4.1 4.8 4.8 5.5 6.0 6.5 6.4 7.1 6.8 7.2 6.8 7.0 7.2 6.9 6.9 6.7 6.8 6.6
7.1 8.4 8.6 8.3 8.4 8.1 7.4 7.1 7.4 7.3 6.5 5.8 5.4 5.0 5.3 4.8 4.5 3.8 3.3 3.3 3.3 3.2 3.4 3.2 3.1 3.3 3.5 3.6 4.8 5.1 4.4 5.7 5.8 6.5 6.6 6.5 7.1 7.2 7.1 7.2 6.9 6.8 6.6 6.5
6.9 7.7 8.5 8.5 8.2 8.3 7.7 7.4 7.0 6.6 6.6 6.0 5.5 5.1 5.3 5.3 5.2 5.0 4.3 3.7 3.7 3.2 3.1 3.2 3.1 2.8 2.6 2.9 3.1 2.9 4.1 3.9 4.7 5.1 5.7 6.4 6.7 6.8 6.8 6.5 6.8 6.8 6.6 6.4
6.7 6.5 7.4 7.9 8.0 7.8 7.5 7.3 7.0 6.7 6.4 6.3 5.8 5.6 5.1 5.3 5.6 5.4 5.2 5.0 4.5 3.8 3.7 3.1 3.0 2.9 2.8 2.4 2.9 2.0 3.0 3.6 2.8 4.2 5.2 5.4 6.1 6.3 6.6 6.5 6.4 6.3 6.2 6.4
6.4 6.4 7.1 7.6 7.6 7.7 7.8 7.7 7.4 7.0 6.8 6.4 6.1 6.1 5.8 5.5 5.5 5.5 5.6 5.4 5.2 4.7 4.2 4.0 3.4 3.0 3.0 2.8 2.6 2.8 2.9 2.7 2.8 2.8 4.6 4.3 4.6 5.4 5.7 5.6 5.0 6.4 6.0 5.8
6.2 6.3 6.6 7.1 7.5 7.5 7.6 7.3 7.0 6.9 6.8 6.5 6.1 6.0 5.8 5.8 5.7 5.4 5.4 5.5 5.7 5.4 5.0 4.5 4.4 4.0 3.0 3.3 2.4 2.5 2.4 2.4 3.0 3.0 2.8 3.2 3.3 4.8 4.9 5.0 5.3 5.8 5.8 5.6
6.3 6.3 6.6 6.8 6.5 6.6 6.8 6.6 6.5 6.6 6.6 6.6 6.3 5.9 5.5 5.0 4.8 5.1 5.3 5.2 5.1 5.2 5.3 5.2 4.9 4.8 4.5 3.7 3.5 3.0 2.3 2.1 2.2 2.5 2.9 2.7 3.2 3.2 3.3 4.2 4.5 5.0 5.2 5.4
Wind_Speed
5 6 9 13 13 16 19 21 25 22 20 22 23 26 24 21 20 18 21 20 19 18 14 14 20 21 22 23 24 23 23 19 15 11 11 10 12 13 12 8 21 24 22 22
2 8 13 12 12 12 16 21 25 21 15 12 18 25 24 25 28 25 24 22 23 20 19 16 18 21 23 25 25 25 23 19 19 12 11 12 12 13 13 9 13 23 23 23
9 8 11 12 8 16 19 19 19 19 18 22 23 28 27 30 29 27 25 28 25 25 22 20 19 22 22 23 25 24 25 22 21 21 14 13 13 12 12 14 11 16 24 24
5 9 10 13 10 19 17 14 19 20 16 15 13 18 19 15 16 20 26 25 27 26 25 22 21 22 25 23 23 23 23 25 23 24 19 22 16 16 14 14 15 16 23 21
11 9 11 15 12 21 16 20 24 24 20 19 24 13 18 16 17 21 21 25 27 27 25 24 23 23 25 22 20 20 23 25 25 24 21 17 18 15 14 14 17 18 18 22
13 4 3 9 19 18 15 24 24 22 16 13 27 17 17 16 21 21 19 18 23 25 24 22 22 21 22 22 20 20 22 23 24 24 23 22 20 18 15 16 14 14 14 14
12 3 10 10 21 13 22 19 8 7 7 13 12 11 18 18 18 19 12 15 12 18 22 19 21 20 22 24 22 20 22 23 24 25 24 22 20 19 19 18 15 17 13 13
12 4 12 17 11 10 14 12 6 8 9 13 18 7 6 25 27 26 24 22 12 14 12 16 19 20 22 24 22 21 22 23 24 25 23 21 21 14 14 17 14 14 14 15
12 9 24 11 15 6 10 14 17 7 18 13 10 12 21 28 26 26 25 22 19 18 16 14 15 14 21 21 24 22 23 27 26 25 21 21 20 20 17 18 16 14 16 14
12 18 12 9 13 5 12 10 8 6 6 7 6 8 13 28 28 28 27 24 23 21 20 18 15 14 13 20 22 22 24 27 25 24 21 20 21 21 19 17 18 17 17 18
19 10 10 21 12 14 9 9 6 7 7 5 7 6 14 21 19 26 26 24 22 22 19 17 16 13 13 15 20 20 22 23 21 22 20 19 18 19 18 17 18 18 17 18
8 8 13 20 13 3 9 10 10 7 6 7 7 4 19 22 19 22 25 20 20 19 18 16 16 16 15 16 19 19 19 21 22 21 19 17 17 17 17 17 17 16 17 17
9 5 12 12 6 4 17 17 16 15 13 5 5 6 19 23 21 21 23 21 17 21 22 19 19 17 17 16 14 14 15 17 16 16 16 16 15 17 18 18 17 17 17 17
14 13 15 12 16 15 14 11 18 16 5 8 11 14 24 26 24 25 23 25 22 20 21 21 21 20 18 17 16 7 11 13 14 15 16 17 18 17 16 15 16 16 17 18
10 13 16 17 18 14 15 13 16 18 15 10 14 14 23 22 19 23 20 27 24 23 24 24 22 20 19 19 17 16 13 6 13 14 15 19 17 16 15 14 15 13 15 15
16 12 17 18 14 15 16 19 15 18 17 14 14 13 22 21 17 24 26 27 25 25 23 24 24 25 23 19 17 15 14 12 4 11 12 12 14 14 15 15 14 14 13 12
15 14 13 15 10 5 11 18 15 15 18 18 18 19 21 24 21 21 24 25 23 24 24 21 22 21 22 19 19 18 15 14 14 13 1 11 12 13 14 14 15 15 16 13
17 15 9 11 10 10 9 17 11 7 19 19 19 19 18 18 16 17 21 22 25 24 23 22 20 20 22 20 21 18 18 17 16 15 13 12 5 12 12 14 15 15 13 15
13 10 6 6 7 6 26 27 17 9 19 23 22 20 21 20 19 21 24 20 19 14 19 18 18 21 22 20 20 18 19 20 20 18 15 13 11 9 2 10 10 9 10 9
14 10 8 9 13 10 14 23 16 11 9 25 22 21 22 22 18 16 22 20 20 22 19 17 18 20 22 24 18 16 18 19 23 19 16 14 13 13 11 8 5 4 6 7
14 10 12 12 5 11 17 20 13 17 14 21 21 20 19 17 13 18 21 20 18 16 20 21 22 18 16 18 23 21 14 16 15 16 16 19 16 14 12 11 9 5 7 7
10 8 6 8 8 9 17 17 13 10 15 17 19 20 19 15 17 20 22 22 22 23 23 19 16 19 20 17 15 19 19 16 13 12 15 17 17 14 13 12 10 10 6 8
5 5 5 5 5 4 11 11 13 13 14 16 18 19 19 21 19 20 19 20 20 21 18 19 16 17 18 20 16 12 16 19 18 15 15 12 14 14 15 14 11 8 9 7
2 4 3 3 8 10 9 13 14 15 15 18 18 20 20 19 21 19 18 19 17 18 18 18 18 17 17 15 17 19 18 14 13 14 15 11 12 10 11 8 8 11 8 7
3 5 4 3 6 11 10 14 15 16 17 17 18 20 21 21 21 20 19 18 16 17 17 16 16 16 16 18 17 15 15 15 14 15 11 11 9 11 10 10 7 8 10 8
4 0 4 5 9 10 13 16 17 17 18 20 20 21 20 20 20 20 18 18 18 17 17 16 16 16 17 14 16 17 17 16 13 10 8 8 7 7 7 7 7 13 12 12
Wind_Direction
34 71 25 337 316 294 288 280 277 278 281 278 269 272 273 276 272 259 263 264 264 261 245 224 214 204 201 198 192 191 183 185 178 171 173 172 184 183 180 200 177 179 179 180
156 53 358 328 318 317 297 283 279 290 281 268 271 268 261 256 257 259 261 261 259 259 250 232 212 205 198 198 196 193 185 187 187 175 176 183 187 186 185 180 188 184 181 182
33 23 341 331 318 332 321 298 288 293 311 284 271 269 262 256 256 258 256 255 254 253 249 238 215 202 195 201 196 196 188 184 190 183 181 194 186 183 187 183 180 192 187 184
42 349 344 334 333 339 313 325 313 295 292 275 283 278 270 281 264 249 241 247 245 247 240 242 213 202 202 202 198 197 190 187 190 191 187 191 187 187 188 187 188 188 190 188
8 327 335 337 336 325 307 310 289 284 269 269 265 255 271 270 257 256 254 245 249 246 247 234 228 207 202 203 196 194 193 194 191 191 191 189 192 193 183 184 188 190 191 194
343 298 316 347 332 317 320 312 284 254 250 259 255 252 271 258 261 262 267 260 252 248 254 246 233 213 200 197 200 192 195 197 192 194 194 190 193 192 183 183 186 190 190 196
341 31 9 6 341 334 337 344 321 246 190 248 271 239 256 278 278 286 308 305 324 315 260 255 240 211 211 199 193 193 195 194 195 195 194 192 191 196 189 184 182 185 191 193
344 320 12 332 337 311 318 341 328 305 311 312 309 243 41 13 8 3 349 332 308 303 322 294 245 218 214 207 191 193 192 197 192 196 197 190 190 195 193 190 187 190 192 192
320 302 320 305 325 331 338 342 312 263 257 261 245 320 43 1 2 356 344 342 336 331 324 314 296 278 211 210 195 199 193 199 197 196 195 193 190 195 194 192 197 193 192 188
319 307 294 325 316 180 320 328 334 339 286 299 336 62 4 358 355 354 348 339 338 335 331 323 301 270 260 216 210 192 203 206 198 194 196 195 193 195 194 194 196 195 195 196
313 257 285 310 336 316 327 349 333 289 258 297 326 65 5 351 348 354 347 340 336 332 337 334 332 283 257 247 216 196 198 209 201 197 197 196 197 195 196 197 196 198 196 194
334 295 291 305 295 181 343 346 332 293 290 294 268 101 9 350 344 357 347 335 335 343 345 347 348 353 323 231 211 210 198 207 204 198 197 201 196 197 198 200 201 196 196 198
325 286 314 308 164 239 343 347 357 316 254 348 359 20 355 346 356 353 352 337 347 355 354 359 0 1 357 348 219 205 198 202 203 195 186 190 198 195 199 196 196 195 195 197
309 283 285 286 302 300 294 10 25 12 9 324 23 348 349 348 360 354 353 347 1 360 2 7 5 1 359 6 12 341 196 195 197 195 183 186 194 196 198 198 196 196 196 194
356 307 336 308 284 279 40 34 31 37 22 18 5 13 356 350 356 356 349 360 358 2 7 10 6 1 1 15 14 9 8 221 186 188 187 193 195 192 189 192 196 194 197 200
348 325 319 301 282 101 58 19 13 33 29 21 17 23 351 350 350 358 4 5 358 355 5 3 7 5 5 14 16 16 14 8 315 179 185 193 191 191 186 188 180 180 183 190
344 328 316 295 319 223 36 2 346 36 35 15 17 358 348 353 353 3 357 1 354 5 354 4 7 9 4 13 19 23 20 27 42 38 264 184 181 185 183 179 183 186 187 185
334 326 292 296 307 71 25 17 351 35 41 26 11 4 360 353 353 7 6 360 359 2 351 359 10 4 13 16 23 22 27 32 38 39 32 21 198 179 179 179 186 194 190 180
346 341 319 312 31 84 17 8 2 53 35 15 9 5 357 347 351 16 9 6 1 352 360 2 359 10 10 19 22 22 30 30 35 32 29 31 34 43 105 189 186 183 182 184
15 5 14 8 64 44 360 355 339 315 15 358 4 5 2 356 10 359 352 3 1 3 2 1 3 4 9 14 10 31 31 30 35 25 25 34 36 45 48 41 63 90 112 122
19 14 19 25 33 55 4 10 358 29 345 349 356 2 6 9 354 343 350 359 5 360 4 3 1 18 16 3 9 14 26 39 33 31 30 35 33 38 36 50 41 60 105 96
18 348 22 20 18 23 0 27 29 352 346 354 351 351 349 354 351 351 353 354 356 358 359 4 5 3 13 21 24 9 14 22 30 40 34 40 36 35 38 35 41 45 55 90
32 12 335 29 23 360 16 17 10 357 347 345 341 338 338 339 345 342 344 347 347 354 356 354 9 10 6 3 19 351 37 7 18 13 54 31 40 40 41 37 34 45 45 50
94 349 351 276 23 351 359 359 357 350 343 336 333 331 331 330 330 332 334 335 340 344 350 352 358 1 358 1 6 7 7 11 13 32 27 24 48 44 51 49 34 45 42 46
336 284 311 255 15 334 352 351 350 339 339 335 333 328 326 326 324 325 325 325 328 330 336 341 345 349 359 354 359 8 2 352 5 14 29 30 20 54 55 52 33 51 46 32
215 264 302 332 330 325 330 334 327 332 331 333 331 328 325 321 318 319 318 319 320 323 320 324 332 337 339 347 349 355 0 357 3 357 4 8 43 22 40 57 58 45 32 50